Location: Mount Cross
(36.6390°N, 79.4878°W)
Time: 12:28:48
(UTC+00:00)

Vanguard 1 Rocket - Visible Passes

Search period start: 26 March 2023 00:00
Search period end: 05 April 2023 00:00
Orbit: 652 x 4223 km, 34.3° (Epoch: 25 March)

Date Brightness Start Highest point End Pass type
(mag) Time Alt. Az. Time Alt. Az. Time Alt. Az.
26 Mar 10.9 00:07:58 10° S 00:26:31 26° SE 00:39:04 15° E visible
26 Mar 10.1 02:32:40 10° SW 02:56:27 55° SSE 02:56:27 55° SSE visible
26 Mar 10.9 05:05:04 10° WSW 05:39:57 - E 05:13:50 28° WSW visible
26 Mar 8.6 07:57:13 60° SE 07:57:13 60° SE 08:03:04 10° ESE visible
26 Mar 8.8 10:14:30 15° W 10:20:11 26° SW 10:25:07 10° SSE visible
27 Mar 10.4 01:19:17 10° SSW 01:42:42 44° SE 01:50:15 35° ESE visible
27 Mar 10.2 03:49:03 10° WSW 04:07:38 55° SW 04:07:38 55° SW visible
27 Mar 9.9 06:23:39 10° W 06:49:55 25° ESE 06:52:27 10° E visible
27 Mar 8.5 09:07:11 41° WSW 09:09:25 47° SSW 09:15:49 10° SE visible
28 Mar 11.0 00:07:35 10° SSW 00:28:22 32° SE 00:44:01 14° E visible
28 Mar 10.0 02:33:57 10° SW 02:59:16 62° SSE 03:01:24 60° SE visible
28 Mar 10.7 05:07:09 10° WSW 05:42:41 - E 05:18:47 36° WSW visible
28 Mar 8.7 07:59:58 56° SSE 07:59:58 56° SSE 08:05:47 10° ESE visible
28 Mar 9.2 10:17:15 13° W 10:22:17 20° SW 10:26:55 10° S visible
29 Mar 10.4 01:20:09 10° SW 01:44:39 51° SSE 01:55:07 33° E visible
29 Mar 10.0 03:50:54 10° WSW 04:12:30 67° SW 04:12:30 67° SW visible
29 Mar 10.0 06:25:53 10° W 06:52:49 24° ESE 06:55:15 10° ESE visible
29 Mar 8.8 09:10:07 37° WSW 09:11:41 39° SW 09:18:11 10° SSE visible
30 Mar 10.9 00:07:54 10° SSW 00:30:07 39° SE 00:48:46 12° E visible
30 Mar 10.0 02:35:31 10° SW 03:01:26 69° SSE 03:06:07 59° ESE visible
30 Mar 10.4 05:09:18 10° W 05:45:46 - E 05:23:29 43° W visible
30 Mar 8.9 08:03:04 47° SSE 08:03:04 47° SSE 08:08:24 10° SE visible
30 Mar 9.5 10:20:23 12° WSW 10:24:16 15° SW 10:28:09 10° SSW visible
31 Mar 10.4 01:21:22 10° SW 01:46:35 58° SSE 01:59:39 29° E visible
31 Mar 9.9 03:52:54 10° WSW 04:17:00 78° SSW 04:17:00 78° SSW visible
31 Mar 10.1 06:28:06 10° W 06:56:08 20° ESE 06:57:59 10° ESE visible
31 Mar 9.1 09:13:27 32° SW 09:13:47 32° SW 09:20:19 10° SSE visible
01 Apr 10.8 00:08:40 10° SSW 00:31:48 46° SE 00:52:27 10° E visible
01 Apr 10.0 02:37:18 10° WSW 03:03:38 74° SSE 03:10:23 53° E visible
01 Apr 10.3 05:11:30 10° W 05:49:18 - E 05:27:43 50° W visible
01 Apr 9.3 08:06:38 35° SSE 08:06:38 35° SSE 08:10:53 10° SE visible
01 Apr 9.8 10:24:38 10° WSW 10:26:08 10° WSW 10:27:31 10° SW visible
02 Apr 10.4 01:22:53 10° SW 01:48:32 65° SSE 02:03:37 25° E visible
02 Apr 9.8 03:55:02 10° W 04:20:45 83° S 04:20:56 83° SSE visible
02 Apr 10.3 06:30:18 10° W 06:59:54 14° ESE 07:00:39 10° ESE visible
02 Apr 9.4 09:17:14 24° SW 09:17:14 24° SW 09:22:10 10° S visible
03 Apr 10.7 00:09:51 10° SW 00:33:31 53° SSE 00:55:12 10° ENE visible
03 Apr 10.1 02:39:16 10° WSW 03:05:51 79° SSE 03:14:01 49° E visible
03 Apr 10.1 05:13:42 10° W 05:31:20 55° W 05:31:20 55° W visible
03 Apr 9.7 08:10:34 23° SSE 08:10:34 23° SSE 08:13:11 10° SSE visible
04 Apr 10.4 01:24:39 10° WSW 01:50:31 71° SSE 02:06:57 23° E visible
04 Apr 9.8 03:57:14 10° W 04:23:09 83° S 04:24:14 81° SE visible
04 Apr 10.6 06:32:29 10° W 07:03:58 - SE 06:41:32 29° W visible
04 Apr 9.8 09:21:19 16° SSW 09:21:19 16° SSW 09:23:34 10° S visible
